COSMOS 1691 DEB, 17168

Orbit data source: Space-Track

COSMOS 1691 DEB, 17168 is space debris in LEO originally from a launch on Wed, 09 Oct 1985 UTC launched from the Plesetsk Missile And Space Complex (PKMTR). Debris objects in space refer to the collection of defunct objects orbiting the Earth. Examples of debris include non-operational satellites, rocket bodies, and fragments generated from explosions, collisions, or faulty payload assembly.

Loading next visibility...
Identifier
17168, 1985-094S
Orbit
LEO
Country
Flag of CISCIS
Related business
Manufacturer
Unknown
Mission
Spacecraft
Bus & Motor
Unknown
Mass
Unknown
Launch date (UTC)
1985-10-09 (40 years ago)
Launch vehicle
Unknown
Launch site
Plesetsk Missile And Space Complex (PKMTR)
Object type
Payload
Rocket body
Debris
Shape & HBR
Unknown shape, 0.1 m
Radar Cross Section
Small (<0.1 m²)

Expand to show TLE details & history
Last TLE update: 12 hours ago

TLE from 12 hours ago
0 COSMOS 1691 DEB
1 17168U 85094S   25295.10627373  .00004412  00000-0  12106-1 0  9993
2 17168  82.5544 331.2439 0022091 343.5560  44.6086 13.13024859872166
Epoch: 2025-10-22T02:33Z
TLE epoch observation values (Epoch: 2025-10-22T02:33:02.050Z)
Latitude
28.1233°
Longitude
-93.81431°
Altitude
1,202.938 km
Speed
7.261 km/s
True Right ascension
22h 20m 54s
True Declination
27° 59' 20"
Sunlit
Object was in full shadow at epoch
Visualization orbit readout
Latitude
Unknown
Longitude
Unknown
Altitude
Unknown
Speed
Unknown
Apparent Right ascension
Unknown
Apparent Declination
Unknown
Sunlit
N/A
Visualization observer readout
Local Sidereal Time
09:57:08
Azimuth
Unknown
Elevation
Unknown
Doppler factor
Unknown
Orbital elements
Apogee altitude
1,225.491 km
Perigee altitude
1,191.97 km
Semi-major axis
7,586.867 km
Eccentricity
0.00221
Inclination
82.5544°
RAAN
331.2439°
Arg. of periapsis
343.556°
True anomaly
44.78672°
Mean anomaly
44.6086°
Eccentric anomaly
44.69763°
Mean motion
3.28435 °/min
Orbital period
109.61 mins
BSTAR
0.012106
Loading maneuver chart data...
Computing Atmospheric mass density...
Loading historical data...
Loading historical data...
Loading historical data...
Loading historical data...
Loading historical data...
Loading historical data...
Loading historical data...

Documentation

Showing up to 5 results
|